| time (UTC) | temp F | wind direction | speed knots | gust knots | rain 1hr in | rain 24hr in | rain mn in | humidity % | barometer mb |
| 20260509070029 | 57 | 251 | 0.0 | 4.3 | 0.00 | 0.50 | 0.00 | 92 | 1010.6 |
| 20260509064529 | 57 | 234 | 0.9 | 4.3 | 0.00 | 0.50 | 0.00 | 92 | 1010.6 |
| 20260509063031 | 57 | 280 | 1.7 | 7.0 | 0.00 | 0.50 | 0.00 | 92 | 1010.5 |
| 20260509061528 | 57 | 156 | 0.9 | 7.0 | 0.00 | 0.50 | 0.00 | 92 | 1010.5 |
| 20260509060029 | 57 | 160 | 0.0 | 3.5 | 0.00 | 0.50 | 0.00 | 92 | 1010.5 |
| 20260509054527 | 57 | 188 | 0.9 | 3.5 | 0.00 | 0.50 | 0.00 | 92 | 1010.5 |
| 20260509053034 | 57 | 182 | 2.6 | 4.3 | 0.00 | 0.50 | 0.00 | 92 | 1010.5 |
| 20260509051522 | 57 | 175 | 0.9 | 5.2 | 0.00 | 0.50 | 0.00 | 92 | 1010.5 |
| 20260509050020 | 57 | 242 | 2.6 | 7.8 | 0.01 | 0.50 | 0.00 | 91 | 1010.4 |
| 20260509044519 | 57 | 146 | 2.6 | 5.2 | 0.02 | 0.50 | 0.50 | 91 | 1010.7 |
| 20260509043037 | 57 | 152 | 0.9 | 4.3 | 0.04 | 0.50 | 0.50 | 91 | 1011.0 |
| 20260509041518 | 58 | 168 | 0.9 | 3.5 | 0.13 | 0.50 | 0.50 | 91 | 1011.2 |
| 20260509040017 | 58 | 173 | 0.0 | 0.0 | 0.22 | 0.49 | 0.49 | 91 | 1011.3 |
| 20260509034516 | 58 | 152 | 0.0 | 0.0 | 0.28 | 0.48 | 0.48 | 90 | 1011.4 |
| 20260509033016 | 58 | 57 | 0.0 | 0.0 | 0.31 | 0.46 | 0.46 | 89 | 1011.7 |
| 20260509031514 | 58 | 22 | 0.0 | 1.7 | 0.28 | 0.36 | 0.36 | 89 | 1011.9 |
| 20260509030013 | 58 | 10 | 0.0 | 3.5 | 0.24 | 0.26 | 0.26 | 86 | 1012.0 |
| 20260509024513 | 59 | 34 | 0.0 | 1.7 | 0.17 | 0.19 | 0.19 | 75 | 1011.5 |
| 20260509023013 | 59 | 20 | 1.7 | 4.3 | 0.13 | 0.15 | 0.15 | 55 | 1011.7 |
| 20260509021511 | 60 | 48 | 0.0 | 7.0 | 0.05 | 0.07 | 0.07 | 56 | 1011.8 |
| 20260509020009 | 60 | 50 | 0.0 | 4.3 | 0.00 | 0.02 | 0.02 | 59 | 1011.6 |
| 20260509014518 | 60 | 14 | 0.0 | 3.5 | 0.00 | 0.02 | 0.02 | 64 | 1011.3 |
| 20260509013006 | 60 | 110 | 0.0 | 0.9 | 0.02 | 0.02 | 0.02 | 75 | 1010.5 |
| 20260509011505 | 61 | 84 | 0.0 | 0.9 | 0.02 | 0.02 | 0.02 | 81 | 1010.5 |
| 20260509010005 | 62 | 111 | 0.0 | 0.9 | 0.02 | 0.02 | 0.02 | 84 | 1010.3 |
| 20260509004504 | 63 | 52 | 0.9 | 6.1 | 0.02 | 0.02 | 0.02 | 87 | 1010.3 |
| 20260509003003 | 65 | 355 | 0.0 | 1.7 | 0.00 | 0.00 | 0.00 | 86 | 1010.5 |
| 20260509001503 | 68 | 38 | 0.0 | 0.9 | 0.00 | 0.00 | 0.00 | 83 | 1010.2 |
| 20260509000002 | 69 | 15 | 1.7 | 3.5 | 0.00 | 0.00 | 0.00 | 78 | 1009.9 |
| 20260508234501 | 69 | 339 | 0.0 | 0.9 | 0.00 | 0.00 | 0.00 | 81 | 1010.2 |
| 20260508233119 | 70 | 339 | 0.0 | 0.0 | 0.00 | 0.00 | 0.00 | 79 | 1010.1 |
| 20260508233002 | 70 | 339 | 0.0 | 0.0 | 0.00 | 0.00 | 0.00 | 79 | 1010.1 |
| 20260508231603 | 71 | 339 | 0.0 | 0.0 | 0.00 | 0.00 | 0.00 | 79 | 1010.2 |
| 20260508230058 | 73 | 339 | 0.0 | 0.0 | 0.00 | 0.00 | 0.00 | 73 | 1010.3 |
| 20260508224559 | 73 | 339 | 0.0 | 0.9 | 0.00 | 0.00 | 0.00 | 69 | 1010.4 |
| 20260508223056 | 74 | 339 | 0.9 | 4.3 | 0.00 | 0.00 | 0.00 | 69 | 1010.4 |
| 20260508221558 | 74 | 21 | 0.9 | 5.2 | 0.00 | 0.00 | 0.00 | 67 | 1010.2 |
| 20260508220055 | 74 | 353 | 0.9 | 2.6 | 0.00 | 0.00 | 0.00 | 66 | 1010.2 |
| 20260508214551 | 73 | 338 | 0.9 | 7.0 | 0.00 | 0.00 | 0.00 | 69 | 1010.5 |
| 20260508213054 | 73 | 61 | 4.3 | 8.7 | 0.00 | 0.00 | 0.00 | 69 | 1010.6 |
| 20260508211548 | 72 | 36 | 4.3 | 7.8 | 0.00 | 0.00 | 0.00 | 71 | 1010.8 |
| 20260508210048 | 73 | 19 | 3.5 | 7.0 | 0.00 | 0.00 | 0.00 | 70 | 1010.9 |
| 20260508204546 | 73 | 339 | 3.5 | 9.6 | 0.00 | 0.00 | 0.00 | 68 | 1011.1 |
| 20260508203043 | 73 | 353 | 2.6 | 5.2 | 0.00 | 0.00 | 0.00 | 68 | 1011.3 |
| 20260508201540 | 74 | 346 | 0.0 | 4.3 | 0.00 | 0.00 | 0.00 | 67 | 1011.4 |
| 20260508200040 | 73 | 294 | 0.0 | 2.6 | 0.00 | 0.00 | 0.00 | 68 | 1011.7 |
| 20260508194536 | 74 | 347 | 0.0 | 4.3 | 0.00 | 0.00 | 0.00 | 67 | 1011.9 |
| 20260508193032 | 74 | 348 | 0.9 | 4.3 | 0.00 | 0.00 | 0.00 | 67 | 1011.9 |
| 20260508191532 | 73 | 236 | 0.9 | 5.2 | 0.00 | 0.00 | 0.00 | 69 | 1012.0 |
| 20260508190130 | 73 | 271 | 2.6 | 7.8 | 0.00 | 0.00 | 0.00 | 67 | 1012.0 |
| 20260508184527 | 72 | 328 | 0.9 | 7.8 | 0.00 | 0.00 | 0.00 | 69 | 1012.1 |
| 20260508183025 | 72 | 339 | 3.5 | 7.0 | 0.00 | 0.00 | 0.00 | 67 | 1012.4 |
| 20260508181532 | 71 | 289 | 1.7 | 6.1 | 0.00 | 0.00 | 0.00 | 70 | 1012.4 |
| 20260508180020 | 70 | 242 | 0.9 | 7.0 | 0.00 | 0.00 | 0.00 | 70 | 1012.6 |
| 20260508174518 | 70 | 285 | 0.9 | 6.1 | 0.00 | 0.00 | 0.00 | 71 | 1012.8 |
| 20260508173013 | 69 | 289 | 1.7 | 7.0 | 0.00 | 0.00 | 0.00 | 71 | 1013.0 |
| 20260508171510 | 68 | 336 | 0.9 | 8.7 | 0.00 | 0.00 | 0.00 | 73 | 1013.2 |
| 20260508170006 | 67 | 231 | 1.7 | 6.1 | 0.00 | 0.00 | 0.00 | 73 | 1013.7 |
| 20260508164502 | 65 | 261 | 1.7 | 4.3 | 0.00 | 0.00 | 0.00 | 74 | 1014.0 |
| 20260508163108 | 65 | 249 | 0.9 | 3.5 | 0.00 | 0.00 | 0.00 | 75 | 1014.3 |
| 20260508161559 | 64 | 226 | 0.9 | 4.3 | 0.00 | 0.00 | 0.00 | 75 | 1014.4 |
| 20260508160057 | 63 | 265 | 0.0 | 7.8 | 0.00 | 0.00 | 0.00 | 75 | 1014.5 |
| 20260508154555 | 64 | 249 | 0.0 | 5.2 | 0.00 | 0.00 | 0.00 | 75 | 1014.8 |
| 20260508153105 | 64 | 137 | 2.6 | 7.0 | 0.00 | 0.00 | 0.00 | 74 | 1014.9 |
| 20260508151552 | 64 | 245 | 1.7 | 9.6 | 0.00 | 0.00 | 0.00 | 74 | 1015.2 |
| 20260508150051 | 62 | 151 | 0.9 | 3.5 | 0.00 | 0.00 | 0.00 | 76 | 1014.8 |
| 20260508144550 | 61 | 267 | 0.0 | 2.6 | 0.00 | 0.00 | 0.00 | 78 | 1015.4 |
| 20260508143110 | 62 | 239 | 0.0 | 2.6 | 0.00 | 0.00 | 0.00 | 77 | 1015.7 |
| 20260508141557 | 62 | 199 | 0.0 | 4.3 | 0.00 | 0.00 | 0.00 | 76 | 1016.0 |
| 20260508140055 | 63 | 238 | 1.7 | 7.0 | 0.00 | 0.00 | 0.00 | 74 | 1015.6 |
| 20260508134545 | 62 | 152 | 0.0 | 4.3 | 0.00 | 0.00 | 0.00 | 78 | 1015.5 |
| 20260508133041 | 60 | 268 | 0.9 | 4.3 | 0.00 | 0.00 | 0.00 | 78 | 1015.4 |
| 20260508131536 | 58 | 190 | 0.0 | 4.3 | 0.00 | 0.00 | 0.00 | 81 | 1015.1 |
| 20260508130032 | 56 | 155 | 0.9 | 3.5 | 0.00 | 0.00 | 0.00 | 83 | 1015.2 |
| 20260508124533 | 53 | 158 | 1.7 | 3.5 | 0.00 | 0.00 | 0.00 | 84 | 1015.2 |
| 20260508123030 | 52 | 178 | 0.9 | 3.5 | 0.00 | 0.00 | 0.00 | 85 | 1015.4 |
| 20260508121528 | 52 | 150 | 0.9 | 3.5 | 0.00 | 0.00 | 0.00 | 85 | 1015.4 |
| 20260508120027 | 0 | 0.0 | 0.0 | 0.00 | 0.00 | 0.00 | 1015.2 | ||
| 20260508114526 | 0 | 0.0 | 0.0 | 0.00 | 0.00 | 0.00 | 1015.1 | ||
| 20260508113019 | 0 | 0.0 | 0.0 | 0.00 | 0.00 | 0.00 | 1015.1 | ||
| 20260508111516 | 0 | 177 | 0.9 | 3.5 | 0.00 | 0.00 | 0.00 | 1015.0 | |
| 20260508110026 | 48 | 153 | 0.9 | 2.6 | 0.00 | 0.00 | 0.00 | 85 | 1015.0 |
| 20260508104612 | 49 | 162 | 0.0 | 1.7 | 0.00 | 0.00 | 0.00 | 85 | 1014.9 |
| 20260508103033 | 49 | 166 | 0.9 | 3.5 | 0.00 | 0.00 | 0.00 | 84 | 1015.0 |
| 20260508101511 | 48 | 161 | 0.9 | 3.5 | 0.00 | 0.00 | 0.00 | 84 | 1015.0 |
| 20260508100009 | 48 | 140 | 1.7 | 3.5 | 0.00 | 0.00 | 0.00 | 85 | 1015.0 |
| 20260508094507 | 48 | 152 | 0.9 | 2.6 | 0.00 | 0.00 | 0.00 | 86 | 1015.2 |
| 20260508093009 | 48 | 174 | 0.0 | 3.5 | 0.00 | 0.00 | 0.00 | 86 | 1015.3 |
| 20260508091504 | 48 | 156 | 1.7 | 4.3 | 0.00 | 0.00 | 0.00 | 86 | 1015.4 |
| 20260508090003 | 48 | 154 | 2.6 | 5.2 | 0.00 | 0.00 | 0.00 | 86 | 1015.2 |
| 20260508084600 | 49 | 180 | 2.6 | 5.2 | 0.00 | 0.00 | 0.00 | 86 | 1015.3 |
| 20260508083057 | 50 | 150 | 1.7 | 4.3 | 0.00 | 0.00 | 0.00 | 85 | 1015.3 |
| 20260508081611 | 50 | 166 | 0.9 | 2.6 | 0.00 | 0.00 | 0.00 | 84 | 1015.4 |
| 20260508080050 | 52 | 161 | 0.9 | 2.6 | 0.00 | 0.00 | 0.00 | 82 | 1015.3 |
| 20260508074549 | 52 | 149 | 0.9 | 2.6 | 0.00 | 0.00 | 0.00 | 80 | 1015.6 |
| 20260508073048 | 53 | 149 | 0.9 | 2.6 | 0.00 | 0.00 | 0.00 | 80 | 1015.5 |
| 20260508071545 | 53 | 147 | 0.9 | 2.6 | 0.00 | 0.00 | 0.00 | 79 | 1015.8 |